Skip Page Navigation
NASA JPL Caltech
NASA Logo - Jet Propulsion Laboratory + View the NASA Portal
+ Center for Near-Earth Object Studies
JPL Home Earth Solar System Stars & Galaxies Technology
JPL Solar System Dynamics
BODIES ORBITS EPHEMERIDES TOOLS PHYSICAL DATA DISCOVERY FAQ SITE MAP
JPL Small-Body Database Browser
Search: [ help ]  
(2014 TV)
Classification: Apollo [NEO]          SPK-ID: 3692561
Ephemeris | Orbit Diagram | Orbital Elements | Mission Design | Physical Parameters | Close-Approach Data ]

[ hide orbit diagram ]

For accurate long-term ephemerides, please instead use our Horizons system.This orbit viewer was implemented using two-body methods, and hence should not be used for determining accurate long-term trajectories (over several years or decades) or planetary encounter circumstances.


Orbital Elements at Epoch 2459200.5 (2020-Dec-17.0) TDB
Reference: JPL 15 (heliocentric ecliptic J2000)
 Element Value Uncertainty (1-sigma)   Units 
e .3936126735465952 2.8114e-05  
a 1.089866062589088 2.3044e-05 au
q .6608809678856964 1.6682e-05 au
i 7.155538713327503 0.000572 deg
node 199.8399888506209 0.00022866 deg
peri 286.6184433232272 0.00034722 deg
M 94.95232065758253 0.058765 deg
tp 2459090.887217223374
(2020-Aug-29.38721722)
0.064362 TDB
period 415.5833319955229
1.14
0.013181
3.609e-05
d
yr
n .8662522586538151 2.7474e-05 deg/d
Q 1.51885115729248 3.2115e-05 au
  Orbit Determination Parameters
   # obs. used (total)      41  
   # delay obs. used      0  
   # Doppler obs. used      2  
   data-arc span      16 days  
   first obs. used      2014-10-01  
   last obs. used      2014-10-17  
   planetary ephem.      DE431  
   SB-pert. ephem.      SB431-N16  
   condition code      5  
   norm. resid. RMS      .50049  
   source      ORB  
   producer      Otto Matic  
   solution date      2017-Apr-06 08:38:15  

Additional Information
 Earth MOID = .0113176 au 
 Jupiter MOID = 3.56225 au 
 T_jup = 5.609 
[ show covariance matrix ]

Ephemeris | Orbit Diagram | Orbital Elements | Mission Design | Physical Parameters | Close-Approach Data ]

Physical Parameter Table
Parameter Symbol Value Units Sigma Reference Notes
absolute magnitude H 24.4   n/a MPO315327  
rotation period rot_per 0.02190 h n/a LCDB (Rev. 2020-October); Warner et al., 2009 Result based on less than full coverage, so that the period may be wrong by 30 percent or so.
Published Reference List:
[Warner, B.D. (2015) Minor Planet Bull. 42, 115-127.]

[ show close-approach data ]
Ephemeris | Orbit Diagram | Orbital Elements | Mission Design | Physical Parameters | Close-Approach Data ]
ABOUT SSD CREDITS/AWARDS PRIVACY/COPYRIGHT GLOSSARY LINKS
FirstGov 2021-Apr-12 17:19 UT
(server date/time)  
NASA Home Page
Site Manager:   Ryan S. Park
Webmaster  Alan B. Chamberlin